Location: Newark
(61.5000°N, 23.7667°E)
Time: 02:24:53
(UTC+00:00)

ISS - Pass Details

Date: 25 September 2019
Orbit: 411 x 421 km, 51.6° (Epoch: 16 October)

Event Time Altitude Azimuth Distance (km) Brightness Sun altitude
Rises 17:01:44 0° 210° (SSW) 2,340 0.3 -6.2°
Maximum altitude 17:06:00 10° 157° (SSE) 1,473 -1.3 -6.7°
Drops below altitude 10° 17:06:23 10° 150° (SSE) 1,482 -1.4 -6.7°
Enters shadow 17:07:58 - 126° (SE) 1,696 -1.2 -6.9°
